RYR425L EHEH-LERS

Flight info

Callsign RYR425L
Flight time 1h 42m
Altitude 36000
Route LNO Z283 IDOSA UN857 TOLVU DCT SIZZA DCT IBNIT DCT TIS DCT MINPA DCT AMOLO DCT PUMAL N31 BERGA
Aircraft B738/M-SDE2E3FGHIRWXY/LB1

Departure

Time 2026-04-25 16:44
Airport Eindhoven Airport (EHEH)

Arrival

Time 2026-04-25 18:26
Airport Reus Airport (LERS)
Time Latitude Longitude Altitude Speed Heading
2026-04-25 16:39 51.45876 5.38586 77 ft 8 kts 304°
2026-04-25 16:39 51.45956 5.38405 72 ft 26 kts 306°
2026-04-25 16:39 51.45948 5.38220 73 ft 20 kts 215°
2026-04-25 16:40 51.45799 5.38054 74 ft 34 kts 214°
2026-04-25 16:40 51.45623 5.37857 81 ft 30 kts 214°
2026-04-25 16:40 51.45458 5.37671 82 ft 28 kts 215°
2026-04-25 16:40 51.45302 5.37496 76 ft 26 kts 215°
2026-04-25 16:41 51.45156 5.37333 71 ft 25 kts 215°
2026-04-25 16:41 51.45109 5.37280 78 ft 24 kts 215°
2026-04-25 16:41 51.44730 5.36853 82 ft 28 kts 214°
2026-04-25 16:42 51.44576 5.36682 73 ft 26 kts 215°
2026-04-25 16:42 51.44432 5.36521 73 ft 24 kts 214°
2026-04-25 16:42 51.44298 5.36371 85 ft 23 kts 215°
2026-04-25 16:42 51.44173 5.36274 82 ft 15 kts 153°
2026-04-25 16:43 51.44117 5.36412 83 ft 14 kts 100°
2026-04-25 16:43 51.44187 5.36529 81 ft 31 kts 35°
2026-04-25 16:43 51.44578 5.36964 82 ft 103 kts 35°
2026-04-25 16:43 51.45340 5.37816 95 ft 160 kts 35°
2026-04-25 16:44 51.45954 5.38509 458 ft 165 kts 33°
2026-04-25 16:44 51.46913 5.39559 1280 ft 167 kts 31°
2026-04-25 16:44 51.47889 5.40650 2072 ft 180 kts 32°
2026-04-25 16:44 51.48980 5.41873 2544 ft 201 kts 33°
2026-04-25 16:45 51.50554 5.43741 3094 ft 220 kts 40°
2026-04-25 16:45 51.51204 5.45038 3541 ft 224 kts 60°
2026-04-25 16:45 51.51518 5.47516 4192 ft 235 kts 92°
2026-04-25 16:45 51.50970 5.50892 5217 ft 241 kts 107°
2026-04-25 16:46 51.50587 5.52616 5718 ft 243 kts 107°
2026-04-25 16:46 51.50009 5.55187 6485 ft 247 kts 107°
2026-04-25 16:46 51.49435 5.57797 7231 ft 250 kts 105°
2026-04-25 16:46 51.49128 5.59614 7472 ft 263 kts 101°
2026-04-25 16:47 51.48569 5.63650 8017 ft 286 kts 105°
2026-04-25 16:47 51.47528 5.66388 8724 ft 294 kts 137°
2026-04-25 16:47 51.45876 5.68344 9500 ft 298 kts 146°
2026-04-25 16:47 51.44149 5.70148 10232 ft 302 kts 147°
2026-04-25 16:48 51.42353 5.71993 10709 ft 316 kts 147°
2026-04-25 16:48 51.40438 5.73968 10923 ft 338 kts 147°
2026-04-25 16:48 51.38430 5.76056 11377 ft 349 kts 147°
2026-04-25 16:48 51.36378 5.78203 12031 ft 353 kts 147°
2026-04-25 16:49 51.34323 5.80360 12829 ft 355 kts 147°
2026-04-25 16:49 51.32237 5.82555 13514 ft 361 kts 147°
2026-04-25 16:49 51.30131 5.84769 14259 ft 364 kts 147°
2026-04-25 16:49 51.28009 5.86997 14975 ft 367 kts 147°
2026-04-25 16:50 51.25860 5.89217 15701 ft 369 kts 152°
2026-04-25 16:50 51.23461 5.90624 16381 ft 369 kts 172°
2026-04-25 16:50 51.20916 5.91154 17150 ft 370 kts 175°
2026-04-25 16:50 51.18348 5.91634 17855 ft 373 kts 175°
2026-04-25 16:51 51.15754 5.92138 18534 ft 377 kts 175°
2026-04-25 16:51 51.13140 5.92678 19134 ft 380 kts 175°
2026-04-25 16:51 51.10509 5.93206 19740 ft 382 kts 178°
2026-04-25 16:51 51.08719 5.93139 20131 ft 380 kts 192°
2026-04-25 16:52 51.05336 5.91726 20953 ft 381 kts 199°
2026-04-25 16:52 51.02787 5.90546 21537 ft 384 kts 199°
2026-04-25 16:52 51.00211 5.89356 22119 ft 387 kts 199°
2026-04-25 16:52 50.97618 5.88173 22714 ft 389 kts 199°
2026-04-25 16:53 50.92414 5.85546 23719 ft 396 kts 202°
2026-04-25 16:53 50.89797 5.84118 24179 ft 399 kts 202°
2026-04-25 16:53 50.87174 5.82683 24693 ft 399 kts 202°
2026-04-25 16:54 50.84539 5.81250 25182 ft 401 kts 202°
2026-04-25 16:54 50.81896 5.79823 25630 ft 403 kts 202°
2026-04-25 16:54 50.79231 5.78395 26067 ft 406 kts 202°
2026-04-25 16:54 50.76549 5.76966 26519 ft 407 kts 201°
2026-04-25 16:55 50.73859 5.75539 26957 ft 409 kts 201°
2026-04-25 16:55 50.71147 5.74105 27388 ft 411 kts 201°
2026-04-25 16:55 50.68427 5.72669 27793 ft 414 kts 201°
2026-04-25 16:55 50.65693 5.71228 28212 ft 415 kts 201°
2026-04-25 16:56 50.62945 5.69782 28606 ft 417 kts 201°
2026-04-25 16:56 50.60183 5.68330 28980 ft 420 kts 201°
2026-04-25 16:56 50.57405 5.66871 29343 ft 422 kts 201°
2026-04-25 16:56 50.54611 5.65406 29713 ft 424 kts 201°
2026-04-25 16:57 50.51807 5.63938 30066 ft 426 kts 201°
2026-04-25 16:57 50.49942 5.62962 30296 ft 427 kts 201°
2026-04-25 16:57 50.46179 5.60996 30855 ft 425 kts 201°
2026-04-25 16:57 50.43423 5.59559 31322 ft 422 kts 201°
2026-04-25 16:58 50.40638 5.58109 31704 ft 421 kts 201°
2026-04-25 16:58 50.37858 5.56662 32048 ft 422 kts 201°
2026-04-25 16:58 50.35035 5.55194 32412 ft 421 kts 201°
2026-04-25 16:58 50.32298 5.53773 32826 ft 419 kts 201°
2026-04-25 16:59 50.29535 5.52340 33212 ft 418 kts 201°
2026-04-25 16:59 50.26776 5.50910 33554 ft 418 kts 201°
2026-04-25 16:59 50.24018 5.49482 33884 ft 418 kts 201°
2026-04-25 16:59 50.21263 5.48059 34259 ft 416 kts 201°
2026-04-25 17:00 50.18520 5.46643 34571 ft 415 kts 200°
2026-04-25 17:00 50.15777 5.45229 34851 ft 415 kts 200°
2026-04-25 17:00 50.13032 5.43815 35085 ft 415 kts 200°
2026-04-25 17:00 50.10292 5.42406 35399 ft 414 kts 200°
2026-04-25 17:01 50.07561 5.41003 35657 ft 414 kts 200°
2026-04-25 17:01 50.04828 5.39601 35898 ft 414 kts 200°
2026-04-25 17:01 50.02092 5.38198 36166 ft 413 kts 200°
2026-04-25 17:02 49.96595 5.35385 36165 ft 416 kts 200°
2026-04-25 17:02 49.91127 5.32596 36161 ft 412 kts 200°
2026-04-25 17:03 49.85695 5.29831 36150 ft 410 kts 200°
2026-04-25 17:03 49.80292 5.27087 36150 ft 408 kts 200°
2026-04-25 17:04 49.74897 5.24352 36149 ft 408 kts 200°
2026-04-25 17:04 49.69499 5.21623 36153 ft 409 kts 199°
2026-04-25 17:05 49.64081 5.18891 36144 ft 411 kts 199°
2026-04-25 17:05 49.55898 5.14776 36145 ft 414 kts 199°
2026-04-25 17:06 49.50406 5.12022 36138 ft 416 kts 199°
2026-04-25 17:06 49.44887 5.09261 36136 ft 418 kts 199°
2026-04-25 17:07 49.39426 5.06536 36138 ft 419 kts 199°
2026-04-25 17:07 49.33880 5.03776 36129 ft 419 kts 199°
2026-04-25 17:08 49.28329 5.01018 36134 ft 419 kts 199°
2026-04-25 17:08 49.22777 4.98268 36129 ft 419 kts 199°
2026-04-25 17:09 49.17233 4.95528 36130 ft 418 kts 199°
2026-04-25 17:09 49.11734 4.92816 36131 ft 417 kts 198°
2026-04-25 17:10 49.06211 4.90098 36129 ft 417 kts 198°
2026-04-25 17:10 49.00696 4.87391 36131 ft 416 kts 198°
2026-04-25 17:11 48.95187 4.84693 36129 ft 417 kts 198°
2026-04-25 17:11 48.89601 4.81964 36143 ft 426 kts 198°
2026-04-25 17:12 48.83908 4.79189 36127 ft 431 kts 198°
2026-04-25 17:12 48.78195 4.76411 36129 ft 432 kts 198°
2026-04-25 17:13 48.74361 4.74551 36128 ft 432 kts 198°
2026-04-25 17:13 48.66740 4.70861 36129 ft 432 kts 198°
2026-04-25 17:14 48.61030 4.68105 36131 ft 430 kts 198°
2026-04-25 17:14 48.55331 4.65360 36128 ft 429 kts 198°
2026-04-25 17:15 48.49652 4.62631 36127 ft 428 kts 198°
2026-04-25 17:15 48.43992 4.59918 36126 ft 426 kts 198°
2026-04-25 17:16 48.38339 4.57214 36122 ft 426 kts 198°
2026-04-25 17:16 48.32701 4.54525 36122 ft 425 kts 198°
2026-04-25 17:17 48.27067 4.51843 36122 ft 425 kts 197°
2026-04-25 17:17 48.21430 4.49166 36122 ft 425 kts 197°
2026-04-25 17:18 48.15792 4.46494 36124 ft 425 kts 197°
2026-04-25 17:18 48.10138 4.43822 36122 ft 426 kts 198°
2026-04-25 17:19 48.04474 4.41150 36123 ft 427 kts 197°
2026-04-25 17:19 47.98802 4.38481 36119 ft 428 kts 197°
2026-04-25 17:20 47.93117 4.35813 36119 ft 429 kts 198°
2026-04-25 17:20 47.87425 4.33146 36118 ft 429 kts 198°
2026-04-25 17:21 47.81724 4.30482 36112 ft 429 kts 198°
2026-04-25 17:21 47.76064 4.27843 36108 ft 429 kts 198°
2026-04-25 17:22 47.72256 4.26071 36118 ft 429 kts 198°
2026-04-25 17:22 47.64670 4.22549 36115 ft 429 kts 198°
2026-04-25 17:23 47.58971 4.19910 36117 ft 429 kts 198°
2026-04-25 17:23 47.53279 4.17281 36107 ft 428 kts 198°
2026-04-25 17:24 47.47591 4.14659 36112 ft 428 kts 198°
2026-04-25 17:24 47.41901 4.12042 36118 ft 428 kts 198°
2026-04-25 17:25 47.36217 4.09434 36100 ft 428 kts 198°
2026-04-25 17:25 47.30530 4.06831 36102 ft 428 kts 198°
2026-04-25 17:26 47.24843 4.04233 36098 ft 428 kts 198°
2026-04-25 17:26 47.19151 4.01639 36103 ft 428 kts 198°
2026-04-25 17:27 47.13459 3.99050 36103 ft 429 kts 198°
2026-04-25 17:27 47.09681 3.97336 36097 ft 429 kts 199°
2026-04-25 17:28 47.02049 3.93879 36108 ft 429 kts 199°
2026-04-25 17:28 46.96336 3.91299 36102 ft 430 kts 199°
2026-04-25 17:29 46.90614 3.88720 36112 ft 431 kts 199°
2026-04-25 17:29 46.84846 3.86125 36114 ft 437 kts 199°
2026-04-25 17:30 46.79002 3.83502 36106 ft 440 kts 199°
2026-04-25 17:30 46.73127 3.80873 36098 ft 442 kts 199°
2026-04-25 17:31 46.67290 3.78267 36091 ft 443 kts 199°
2026-04-25 17:31 46.61398 3.75643 36103 ft 442 kts 199°
2026-04-25 17:32 46.56473 3.73453 36091 ft 441 kts 199°
2026-04-25 17:32 46.50615 3.70854 36101 ft 439 kts 199°
2026-04-25 17:33 46.44778 3.68270 36101 ft 438 kts 199°
2026-04-25 17:33 46.38962 3.65701 36101 ft 436 kts 199°
2026-04-25 17:34 46.33167 3.63146 36102 ft 435 kts 199°
2026-04-25 17:34 46.27389 3.60605 36100 ft 434 kts 199°
2026-04-25 17:35 46.21617 3.58072 36101 ft 433 kts 199°
2026-04-25 17:35 46.15851 3.55547 36103 ft 433 kts 199°
2026-04-25 17:36 46.10120 3.53043 36108 ft 433 kts 199°
2026-04-25 17:36 46.04339 3.50523 36107 ft 435 kts 199°
2026-04-25 17:37 45.98545 3.48002 36102 ft 436 kts 199°
2026-04-25 17:37 45.92728 3.45477 36104 ft 437 kts 199°
2026-04-25 17:38 45.87847 3.43363 36099 ft 438 kts 199°
2026-04-25 17:38 45.81064 3.40431 36105 ft 438 kts 199°
2026-04-25 17:39 45.75216 3.37910 36098 ft 439 kts 199°
2026-04-25 17:39 45.69361 3.35391 36104 ft 439 kts 199°
2026-04-25 17:40 45.63505 3.32877 36097 ft 439 kts 199°
2026-04-25 17:40 45.57651 3.30369 36100 ft 439 kts 199°
2026-04-25 17:41 45.51799 3.27868 36105 ft 439 kts 199°
2026-04-25 17:41 45.45950 3.25373 36099 ft 439 kts 199°
2026-04-25 17:42 45.40103 3.22885 36096 ft 439 kts 199°
2026-04-25 17:42 45.34253 3.20400 36096 ft 439 kts 199°
2026-04-25 17:43 45.28405 3.17922 36095 ft 439 kts 199°
2026-04-25 17:43 45.22560 3.15451 36102 ft 438 kts 199°
2026-04-25 17:44 45.16715 3.12985 36105 ft 438 kts 199°
2026-04-25 17:44 45.10873 3.10525 36104 ft 438 kts 199°
2026-04-25 17:45 45.06020 3.08485 36100 ft 438 kts 199°
2026-04-25 17:45 44.99197 3.05624 36108 ft 437 kts 199°
2026-04-25 17:46 44.93367 3.03185 36113 ft 437 kts 199°
2026-04-25 17:46 44.87533 3.00750 36108 ft 437 kts 199°
2026-04-25 17:47 44.81705 2.98321 36112 ft 437 kts 199°
2026-04-25 17:47 44.75877 2.95899 36111 ft 437 kts 199°
2026-04-25 17:48 44.67139 2.92276 36116 ft 436 kts 199°
2026-04-25 17:49 44.61316 2.89868 36109 ft 436 kts 199°
2026-04-25 17:49 44.55493 2.87465 36119 ft 436 kts 199°
2026-04-25 17:50 44.49673 2.85068 36122 ft 436 kts 199°
2026-04-25 17:50 44.43852 2.82676 36124 ft 436 kts 199°
2026-04-25 17:51 44.38032 2.80289 36122 ft 435 kts 199°
2026-04-25 17:51 44.32220 2.77910 36129 ft 435 kts 199°
2026-04-25 17:52 44.26407 2.75536 36123 ft 435 kts 199°
2026-04-25 17:52 44.20594 2.73167 36126 ft 435 kts 199°
2026-04-25 17:53 44.14780 2.70802 36124 ft 435 kts 199°
2026-04-25 17:53 44.08967 2.68442 36126 ft 435 kts 199°
2026-04-25 17:54 44.03152 2.66087 36130 ft 435 kts 199°
2026-04-25 17:54 43.97334 2.63734 36127 ft 436 kts 199°
2026-04-25 17:55 43.91516 2.61387 36140 ft 435 kts 199°
2026-04-25 17:55 43.85699 2.59044 36133 ft 436 kts 199°
2026-04-25 17:56 43.79920 2.56725 36145 ft 435 kts 199°
2026-04-25 17:56 43.74103 2.54404 36146 ft 435 kts 199°
2026-04-25 17:57 43.68284 2.52087 36145 ft 435 kts 199°
2026-04-25 17:57 43.62468 2.49775 36158 ft 435 kts 199°
2026-04-25 17:58 43.56654 2.47454 36154 ft 435 kts 199°
2026-04-25 17:58 43.50886 2.44981 36159 ft 434 kts 200°
2026-04-25 17:59 43.45141 2.42468 36157 ft 433 kts 200°
2026-04-25 17:59 43.39400 2.39977 36141 ft 432 kts 200°
2026-04-25 18:00 43.33669 2.37509 36128 ft 431 kts 200°
2026-04-25 18:00 43.27942 2.35055 36125 ft 431 kts 200°
2026-04-25 18:01 43.22221 2.32609 36131 ft 431 kts 200°
2026-04-25 18:01 43.16497 2.30165 36137 ft 431 kts 200°
2026-04-25 18:02 43.10760 2.27720 36130 ft 432 kts 200°
2026-04-25 18:02 43.05010 2.25275 36130 ft 433 kts 199°
2026-04-25 18:03 42.99238 2.22825 36132 ft 435 kts 199°
2026-04-25 18:03 42.96336 2.21595 35805 ft 441 kts 199°
2026-04-25 18:03 42.93404 2.20353 35276 ft 441 kts 199°
2026-04-25 18:03 42.90468 2.19111 34634 ft 442 kts 199°
2026-04-25 18:04 42.87536 2.17873 33989 ft 442 kts 199°
2026-04-25 18:04 42.84586 2.16628 33253 ft 444 kts 199°
2026-04-25 18:04 42.81673 2.15399 32543 ft 445 kts 199°
2026-04-25 18:04 42.78714 2.14153 31836 ft 446 kts 199°
2026-04-25 18:05 42.75742 2.12902 31108 ft 448 kts 199°
2026-04-25 18:05 42.72763 2.11650 30439 ft 448 kts 199°
2026-04-25 18:05 42.69792 2.10403 29881 ft 445 kts 199°
2026-04-25 18:05 42.66848 2.09169 29276 ft 441 kts 199°
2026-04-25 18:06 42.63931 2.07947 28727 ft 436 kts 198°
2026-04-25 18:06 42.61045 2.06739 28187 ft 432 kts 198°
2026-04-25 18:06 42.58191 2.05545 27652 ft 428 kts 198°
2026-04-25 18:06 42.55357 2.04361 27120 ft 424 kts 198°
2026-04-25 18:07 42.52545 2.03187 26594 ft 421 kts 198°
2026-04-25 18:07 42.49760 2.02025 26082 ft 418 kts 198°
2026-04-25 18:07 42.46993 2.00871 25570 ft 415 kts 198°
2026-04-25 18:07 42.44239 1.99725 25057 ft 413 kts 198°
2026-04-25 18:08 42.41501 1.98585 24520 ft 411 kts 198°
2026-04-25 18:08 42.38859 1.97487 24022 ft 410 kts 197°
2026-04-25 18:08 42.36136 1.96356 23447 ft 409 kts 197°
2026-04-25 18:08 42.33425 1.95231 22885 ft 406 kts 197°
2026-04-25 18:09 42.30735 1.94116 22354 ft 403 kts 197°
2026-04-25 18:09 42.28067 1.93011 21832 ft 399 kts 197°
2026-04-25 18:09 42.25421 1.91916 21326 ft 396 kts 197°
2026-04-25 18:09 42.24569 1.91564 21166 ft 395 kts 197°
2026-04-25 18:10 42.20196 1.89757 20334 ft 390 kts 197°
2026-04-25 18:10 42.17611 1.88690 19837 ft 387 kts 197°
2026-04-25 18:10 42.15044 1.87632 19353 ft 385 kts 197°
2026-04-25 18:10 42.12494 1.86581 18861 ft 383 kts 197°
2026-04-25 18:11 42.09950 1.85534 18337 ft 381 kts 197°
2026-04-25 18:11 42.07419 1.84493 17794 ft 379 kts 197°
2026-04-25 18:11 42.04938 1.83474 17284 ft 377 kts 197°
2026-04-25 18:11 42.02442 1.82448 16798 ft 374 kts 197°
2026-04-25 18:12 41.99964 1.81432 16303 ft 371 kts 197°
2026-04-25 18:12 41.97502 1.80423 15823 ft 368 kts 197°
2026-04-25 18:12 41.95059 1.79422 15348 ft 366 kts 197°
2026-04-25 18:12 41.92627 1.78426 14878 ft 365 kts 196°
2026-04-25 18:13 41.90207 1.77437 14405 ft 363 kts 197°
2026-04-25 18:13 41.87794 1.76451 13913 ft 362 kts 197°
2026-04-25 18:13 41.85387 1.75468 13379 ft 361 kts 197°
2026-04-25 18:14 41.80617 1.73522 12418 ft 356 kts 197°
2026-04-25 18:14 41.78255 1.72560 11946 ft 354 kts 197°
2026-04-25 18:14 41.75908 1.71605 11483 ft 352 kts 197°
2026-04-25 18:14 41.73574 1.70656 11021 ft 350 kts 197°
2026-04-25 18:15 41.71258 1.69714 10686 ft 341 kts 197°
2026-04-25 18:15 41.69051 1.68818 10496 ft 323 kts 197°
2026-04-25 18:15 41.66961 1.67970 10344 ft 306 kts 197°
2026-04-25 18:15 41.64976 1.67164 10221 ft 293 kts 197°
2026-04-25 18:16 41.63052 1.66384 10081 ft 285 kts 197°
2026-04-25 18:16 41.61154 1.65615 9774 ft 285 kts 197°
2026-04-25 18:16 41.57368 1.64083 9157 ft 284 kts 197°
2026-04-25 18:17 41.55484 1.63321 8848 ft 283 kts 197°
2026-04-25 18:17 41.54237 1.62817 8637 ft 283 kts 197°
2026-04-25 18:17 41.52358 1.62058 8330 ft 282 kts 197°
2026-04-25 18:17 41.50479 1.61299 8016 ft 282 kts 197°
2026-04-25 18:18 41.48598 1.60540 7701 ft 282 kts 197°
2026-04-25 18:18 41.46717 1.59782 7327 ft 284 kts 197°
2026-04-25 18:18 41.44819 1.59016 6977 ft 286 kts 197°
2026-04-25 18:18 41.42909 1.58247 6638 ft 287 kts 197°
2026-04-25 18:19 41.41015 1.57484 6460 ft 281 kts 197°
2026-04-25 18:19 41.39170 1.56741 6316 ft 274 kts 196°
2026-04-25 18:19 41.37371 1.56019 6185 ft 266 kts 196°
2026-04-25 18:19 41.35623 1.55316 6064 ft 259 kts 196°
2026-04-25 18:20 41.33922 1.54604 5905 ft 255 kts 200°
2026-04-25 18:20 41.32313 1.53632 5653 ft 254 kts 206°
2026-04-25 18:20 41.30738 1.52582 5422 ft 252 kts 206°
2026-04-25 18:20 41.29168 1.51550 5173 ft 252 kts 205°
2026-04-25 18:21 41.27597 1.50535 4925 ft 251 kts 204°
2026-04-25 18:21 41.26030 1.49532 4673 ft 249 kts 204°
2026-04-25 18:21 41.24507 1.48437 4407 ft 250 kts 219°
2026-04-25 18:21 41.23486 1.46590 4183 ft 249 kts 244°
2026-04-25 18:22 41.22819 1.44472 3926 ft 248 kts 248°
2026-04-25 18:22 41.22408 1.43068 3794 ft 244 kts 248°
2026-04-25 18:22 41.21605 1.40305 3463 ft 235 kts 248°
2026-04-25 18:22 41.21029 1.38326 3331 ft 222 kts 248°
2026-04-25 18:23 41.20478 1.36440 3066 ft 216 kts 247°
2026-04-25 18:23 41.19948 1.34623 2789 ft 211 kts 248°
2026-04-25 18:23 41.19434 1.32860 2527 ft 198 kts 248°
2026-04-25 18:23 41.18952 1.31207 2266 ft 186 kts 248°
2026-04-25 18:24 41.18497 1.29646 2019 ft 176 kts 248°
2026-04-25 18:24 41.18067 1.28169 1795 ft 169 kts 248°
2026-04-25 18:24 41.17649 1.26734 1577 ft 166 kts 248°
2026-04-25 18:24 41.17236 1.25313 1366 ft 163 kts 248°
2026-04-25 18:25 41.16844 1.23964 1144 ft 153 kts 248°
2026-04-25 18:25 41.16466 1.22667 931 ft 149 kts 248°
2026-04-25 18:25 41.16095 1.21391 723 ft 148 kts 247°
2026-04-25 18:25 41.15725 1.20114 537 ft 148 kts 248°
2026-04-25 18:26 41.15352 1.18828 351 ft 149 kts 249°
2026-04-25 18:26 41.14991 1.17570 242 ft 138 kts 248°
2026-04-25 18:26 41.14714 1.16626 238 ft 79 kts 249°
2026-04-25 18:26 41.14591 1.16205 237 ft 26 kts 249°
2026-04-25 18:27 41.14526 1.15981 237 ft 25 kts 250°
2026-04-25 18:27 41.14579 1.15880 238 ft 14 kts 338°
2026-04-25 18:27 41.14643 1.15843 238 ft 9 kts 318°
2026-04-25 18:27 41.14639 1.15766 238 ft 9 kts 248°
2026-04-25 18:28 41.14617 1.15692 238 ft 9 kts 249°
2026-04-25 18:28 41.14599 1.15619 238 ft 8 kts 267°
2026-04-25 18:28 41.14637 1.15567 238 ft 8 kts 334°
2026-04-25 18:29 41.14660 1.15554 238 ft 0 kts 338°